Weather History for KEGV - April, 2013

Change the Weather History Date:

Friday, April 26, 2013

  Actual Average (KRHI) Record (KRHI)
Temperature  
Mean Temperature 45 °F 46 °F  
Max Temperature 60 °F 59 °F 85 °F (1962)
Min Temperature 30 °F 34 °F 18 °F (1919)
Degree Days  
Heating Degree Days 20 19  
Month to date heating degree days 632  
Since 1 July heating degree days 8427  
Cooling Degree Days 0 0  
Month to date cooling degree days 0  
Year to date cooling degree days 0  
Moisture  
Dew Point 31 °F    
Average Humidity 66    
Maximum Humidity 100    
Minimum Humidity 36    
Precipitation  
Precipitation 0.06 in 0.10 in 1.30 in (1954)
Month to date precipitation 2.18  
Year to date precipitation 5.79  
Snow  
Snow 0.00 in - 4.00 in (1965)
Month to date snowfall  
Since 1 July snowfall  
Snow Depth -    
Sea Level Pressure  
Sea Level Pressure 30.10 in    
Wind  
Wind Speed 4 mph (SSW)    
Max Wind Speed 16 mph    
Max Gust Speed 24 mph    
Visibility 10 miles    
Events Rain    
T = Trace of Precipitation, MM = Missing Value Source: NWS Daily Summary

Daily Weather History Graph

Daily Weather History Graph

Search for Another Location

Airport or City:

Trip Planner

Search our weather history database for the weather conditions in past years. The results will help you decide how hot, cold, wet, or windy it might be!

Date:

Astronomy

Apr. 26, 2013 Rise Set
Actual Time 5:51 AM CDT 7:58 PM CDT
Civil Twilight 5:19 AM CDT 8:31 PM CDT
Nautical Twilight 4:39 AM CDT 9:11 PM CDT
Astronomical Twilight 3:54 AM CDT 9:56 PM CDT
Moon 9:25 PM CDT (4/26) 6:16 AM CDT (4/26)
Length of Visible Light 15h 12m
Length of Day
14h 07m
Full, 99% of the Moon is Illuminated
Apr 26
Full
May 2
Last Quarter
May 9
New
May 17
First Quarter
May 24
Full

Hourly Weather History & Observations

Time (CDT) Temp. Windchill Dew Point Humidity Pressure Visibility Wind Dir Wind Speed Gust Speed Precip Events Conditions
12:15 AM 32.0 °F - 23.0 °F 69% 30.17 in 10.0 mi Calm Calm - N/A   Clear
12:35 AM 32.0 °F - 23.0 °F 69% 30.17 in 10.0 mi Calm Calm - N/A   Clear
12:55 AM 30.2 °F - 23.0 °F 75% 30.17 in 10.0 mi Calm Calm - N/A   Clear
1:15 AM 30.2 °F - 23.0 °F 75% 30.16 in 10.0 mi Calm Calm - N/A   Clear
1:35 AM 30.2 °F 26.7 °F 23.0 °F 75% 30.16 in 10.0 mi South 3.5 mph - N/A   Clear
1:55 AM 30.2 °F 26.7 °F 23.0 °F 75% 30.15 in 10.0 mi South 3.5 mph - N/A   Scattered Clouds
2:15 AM 32.0 °F - 24.8 °F 75% 30.15 in 10.0 mi Calm Calm - N/A   Scattered Clouds
2:35 AM 30.2 °F - 23.0 °F 75% 30.15 in 10.0 mi Calm Calm - N/A   Clear
2:55 AM 30.2 °F - 24.8 °F 80% 30.15 in 10.0 mi Calm Calm - N/A   Scattered Clouds
3:15 AM 32.0 °F - 24.8 °F 75% 30.15 in 10.0 mi Calm Calm - N/A   Mostly Cloudy
3:35 AM 32.0 °F - 24.8 °F 75% 30.16 in 10.0 mi Calm Calm - N/A   Mostly Cloudy
3:55 AM 32.0 °F 27.5 °F 26.6 °F 80% 30.16 in 10.0 mi SSW 4.6 mph - N/A   Overcast
4:15 AM 33.8 °F 30.8 °F 26.6 °F 75% 30.16 in 10.0 mi SSW 3.5 mph - N/A   Overcast
4:35 AM 33.8 °F 30.8 °F 26.6 °F 75% 30.15 in 10.0 mi South 3.5 mph - N/A   Overcast
4:55 AM 33.8 °F 30.8 °F 26.6 °F 75% 30.15 in 10.0 mi SSW 3.5 mph - N/A Rain Light Rain
5:15 AM 33.8 °F 30.8 °F 26.6 °F 75% 30.15 in 10.0 mi SSW 3.5 mph - N/A   Overcast
5:35 AM 33.8 °F 30.8 °F 26.6 °F 75% 30.14 in 10.0 mi SSE 3.5 mph - N/A Rain Rain
5:55 AM 33.8 °F 30.8 °F 28.4 °F 81% 30.15 in 3.0 mi South 3.5 mph - N/A Rain Rain
6:15 AM 32.0 °F 28.7 °F 30.2 °F 93% 30.14 in 5.0 mi SSE 3.5 mph - 0.02 in Rain Rain
6:35 AM 32.0 °F 27.5 °F 32.0 °F 100% 30.13 in 3.0 mi SE 4.6 mph - 0.03 in   Overcast
6:55 AM 32.0 °F 28.7 °F 32.0 °F 100% 30.13 in 5.0 mi SE 3.5 mph - 0.04 in   Drizzle
7:15 AM 33.8 °F 29.6 °F 32.0 °F 93% 30.13 in 10.0 mi SE 4.6 mph - 0.01 in   Light Drizzle
7:35 AM 33.8 °F 28.6 °F 32.0 °F 93% 30.12 in 10.0 mi SE 5.8 mph - 0.01 in Rain Light Rain
7:55 AM 33.8 °F 29.6 °F 32.0 °F 93% 30.11 in 10.0 mi SE 4.6 mph - 0.02 in Rain Light Rain
8:15 AM 35.6 °F 29.2 °F 32.0 °F 87% 30.08 in 10.0 mi SSE 8.1 mph - N/A   Mostly Cloudy
8:55 AM 37.4 °F 29.8 °F 32.0 °F 81% 30.08 in 10.0 mi South 11.5 mph 16.1 mph N/A   Mostly Cloudy
9:15 AM 37.4 °F 32.1 °F 32.0 °F 81% 30.06 in 10.0 mi South 6.9 mph - N/A   Mostly Cloudy
9:35 AM 41.0 °F 36.4 °F 32.0 °F 70% 30.07 in 10.0 mi South 6.9 mph - N/A   Scattered Clouds
9:55 AM 41.0 °F 35.8 °F 32.0 °F 70% 30.06 in 10.0 mi South 8.1 mph - N/A   Scattered Clouds
10:15 AM 42.8 °F 38.6 °F 32.0 °F 66% 30.08 in 10.0 mi SSW 6.9 mph - N/A   Clear
10:35 AM 44.6 °F 40.2 °F 33.8 °F 66% 30.08 in 10.0 mi SSW 8.1 mph - N/A   Clear
10:55 AM 46.4 °F 41.9 °F 32.0 °F 57% 30.07 in 10.0 mi South 9.2 mph - N/A   Clear
11:15 AM 50.0 °F - 32.0 °F 50% 30.07 in 10.0 mi SW 11.5 mph 17.3 mph N/A   Clear
11:35 AM 50.0 °F - 32.0 °F 50% 30.07 in 10.0 mi SW 11.5 mph 24.2 mph N/A   Clear
11:55 AM 51.8 °F - 32.0 °F 47% 30.07 in 10.0 mi SW 15.0 mph 23.0 mph N/A   Clear
12:15 PM 50.0 °F - 32.0 °F 50% 30.06 in 10.0 mi SW 11.5 mph 20.7 mph N/A   Clear
12:35 PM 50.0 °F - 32.0 °F 50% 30.06 in 10.0 mi SW 15.0 mph 23.0 mph N/A   Clear
12:55 PM 53.6 °F - 30.2 °F 41% 30.06 in 10.0 mi SW 15.0 mph 19.6 mph N/A   Clear
1:15 PM 53.6 °F - 32.0 °F 44% 30.05 in 10.0 mi SW 11.5 mph 18.4 mph N/A   Clear
1:55 PM 53.6 °F - 32.0 °F 44% 30.05 in 10.0 mi SW 10.4 mph 20.7 mph N/A   Clear
2:15 PM 53.6 °F - 32.0 °F 44% 30.05 in 10.0 mi SSW 12.7 mph 18.4 mph N/A   Clear
2:35 PM 55.4 °F - 32.0 °F 41% 30.05 in 10.0 mi SSW 10.4 mph 20.7 mph N/A   Clear
2:55 PM 53.6 °F - 32.0 °F 44% 30.05 in 10.0 mi WSW 16.1 mph - N/A   Clear
3:15 PM 53.6 °F - 32.0 °F 44% 30.05 in 10.0 mi WSW 13.8 mph 21.9 mph N/A   Clear
3:35 PM 55.4 °F - 33.8 °F 44% 30.05 in 10.0 mi WSW 11.5 mph 17.3 mph N/A   Clear
3:55 PM 55.4 °F - 32.0 °F 41% 30.04 in 10.0 mi SW 16.1 mph 20.7 mph N/A   Clear
4:15 PM 57.2 °F - 33.8 °F 41% 30.05 in 10.0 mi WSW 13.8 mph 19.6 mph N/A   Clear
4:35 PM 59.0 °F - 33.8 °F 39% 30.05 in 10.0 mi West 9.2 mph - N/A   Clear
4:55 PM 59.0 °F - 33.8 °F 39% 30.05 in 10.0 mi SW 9.2 mph - N/A   Clear
5:15 PM 60.8 °F - 33.8 °F 36% 30.05 in 10.0 mi West 8.1 mph - N/A   Clear
5:55 PM 60.8 °F - 33.8 °F 36% 30.06 in 10.0 mi WSW 13.8 mph 17.3 mph N/A   Clear
6:15 PM 60.8 °F - 33.8 °F 36% 30.06 in 10.0 mi WNW 10.4 mph - N/A   Clear
6:35 PM 60.8 °F - 33.8 °F 36% 30.07 in 10.0 mi WNW 8.1 mph - N/A   Clear
6:55 PM 59.0 °F - 33.8 °F 39% 30.07 in 10.0 mi NW 4.6 mph - N/A   Clear
7:15 PM 59.0 °F - 33.8 °F 39% 30.07 in 10.0 mi Calm Calm - N/A   Clear
7:35 PM 55.4 °F - 33.8 °F 44% 30.08 in 10.0 mi Calm Calm - N/A   Clear
7:55 PM 50.0 °F - 33.8 °F 54% 30.09 in 10.0 mi Calm Calm - N/A   Clear
8:15 PM 46.4 °F - 33.8 °F 62% 30.09 in 10.0 mi Calm Calm - N/A   Clear
8:35 PM 44.6 °F - 33.8 °F 66% 30.10 in 10.0 mi Calm Calm - N/A   Clear
8:55 PM 42.8 °F - 33.8 °F 70% 30.11 in 10.0 mi Calm Calm - N/A   Clear
9:15 PM 41.0 °F - 33.8 °F 76% 30.11 in 10.0 mi Calm Calm - N/A   Clear
9:35 PM 37.4 °F - 32.0 °F 81% 30.12 in 10.0 mi Calm Calm - N/A   Clear
9:55 PM 37.4 °F - 33.8 °F 87% 30.12 in 10.0 mi Calm Calm - N/A   Clear
10:15 PM 37.4 °F - 32.0 °F 81% 30.13 in 10.0 mi Calm Calm - N/A   Clear
10:35 PM 35.6 °F - 32.0 °F 87% 30.13 in 10.0 mi Calm Calm - N/A   Clear
10:55 PM 35.6 °F - 32.0 °F 87% 30.13 in 10.0 mi Calm Calm - N/A   Clear
11:15 PM 35.6 °F - 32.0 °F 87% 30.13 in 10.0 mi Calm Calm - N/A   Clear
11:35 PM 33.8 °F - 32.0 °F 93% 30.13 in 10.0 mi Calm Calm - N/A   Clear
11:55 PM 33.8 °F - 32.0 °F 93% 30.14 in 10.0 mi Calm Calm - N/A   Clear